Back to catalog

BREEZE-M DEB

AliveHEO
NORAD 38607·DEBRIS·🇷🇺 Russia

Launched Mar 14, 2008 from Baikonur Cosmodrome

Loading…

Next Passes (next 24 hours)

TLE

FreshSource: Space-Track

Epoch: Sep 12, 2026, 12:49 UTC

1 38607U 08011BE  26255.53445546 -.00001228  00000-0 -14437-1 0  9995
2 38607  49.9344  29.2116 6484084 147.7287 296.4148  3.05966396174542

Track BREEZE-M DEB in real time with AllMySat

Download on the App Store